www.pogodaiklimat.ru

Погода и климат >> Архив погоды >> Россия >> Ямало-Ненецкий АО >> Антипаюта


АРХИВ ПОГОДЫ в Антипаюте

Время (UTC), дата Ветер
(напр.,м/с)
 
Видим.   Явления Облачность Т
(С)
Тd
(С)
f
(%)
Тe
(С)
Тes
(С)
Комфортность P
(гПа)
Po
(гПа)
Тmin
(С)
Tmax
(С)
R
(мм)
R24
(мм)
S
(см)
03 13.05 С 3 20 км 10/10 600 м
[Sc]
-5.6 -7.1 89 -21 -21 1030.2 1029.7 -7.0 85
06 13.05 С 8-10
{11}
4000 м слаб. снег 10/0
[As op]
-4.2 -5.4 91 -13 -13 1029.5 1029.1
09 13.05 С 8-11
{12}
20 км {снег} 8/8 600 м
[Sc diur, vesp]
-4.2 -6.6 83 -13 -12 1029.9 1029.5
12 13.05 С 9-11
{12}
20 км {снег} 8/8 600 м
[Sc]
-5.7 -7.6 86 -15 -15 1030.9 1030.5
15 13.05 С 11-13
{15}
20 км 10/10 600 м
[Sc]
-6.5 -8.5 86 -17 -17 1031.3 1030.9 -3.8
18 13.05 С 9-13
{14}
20 км слаб. снег {метель} 10/10 600 м
[Sc]
-7.3 -8.6 90 -17 -17 1031.6 1031.2
21 13.05 С 8-11
{14}
20 км позёмок {снег} 10/10 600 м
[St]
-8.5 -10.2 87 -18 -18 1032.2 1031.7
00 14.05 С 10-14
{14}
20 км позёмок ясно -9.3 -11.0 87 -20 -20 1032.6 1032.1
03 14.05 С 9-11
{14}
20 км позёмок ясно -9.3 -11.2 86 -19 -19 1033.2 1032.7 -9.9 0.4 85
06 14.05 С 9-11
{12}
20 км позёмок ясно -7.9 -10.2 84 -18 -17 1033.1 1032.7
09 14.05 С 9-12
{14}
20 км позёмок ясно -6.4 -9.0 82 -16 -15 1033.3 1032.9
12 14.05 С 8-11
{13}
20 км позёмок 4/4 1000 м
[Cu hum]
-7.0 -9.5 82 -16 -16 1034.1 1033.6
15 14.05
{11}
{метель} н/о -10.6 1033.9 1033.5 -6.4
18 14.05 С 4 20 км 9/9 600 м
[Sc]
-10.1 -11.7 88 -17 -17 1033.5 1033.0
21 14.05 С 5 20 км 9/0
[Ac As]
-10.7 -12.3 88 -19 -19 1032.7 1032.2
00 15.05 С 4 20 км 8/0
[Ac As]
-9.8 -11.6 87 -17 -16 1032.5 1032.0
06 15.05 С 5 20 км 4/0
[Ci fib]
-5.4 -8.3 80 -13 -8 1031.6 1031.2
12 15.05 С 3 20 км 4/0
[Cs]
-4.4 -7.1 81 -10 -7 1031.0 1030.6
15 15.05 н/о -8.6 1030.7 1030.3 -4.1
03 16.05 В 2 500 м туман ?/? -9.0 -10.0 92 -14 -14 1027.4 1027.0 -10.1 85
06 16.05 ЮВ 3 4000 м дымка {туман} 8/0
[As trans]
-8.0 -9.0 92 -14 -10 1026.2 1025.8
12 16.05 н/о -6.5 1023.9 1023.5
15 16.05 ЮВ 4 20 км 3/0
[Ci fib]
-5.6 -7.4 87 -12 -12 1022.9 1022.5 -4.4
03 17.05 В 3 20 км 6/0
[Ac trans Ci fib]
-6.2 -9.5 77 -12 -8 1019.5 1019.0 85
06 17.05 В 4 20 км 6/0
[Ac inh Ci sp]
-3.1 -7.0 74 -9 -5 1018.7 1018.3
12 17.05 В 5 20 км 4/0
[Ci fib]
-1.8 -4.4 82 -8 -7 1018.1 1017.7
15 17.05 В 4 20 км 4/0
[Ci fib]
-3.5 -5.3 87 -10 -9 1017.6 1017.2 -1.0
03 18.05 В 7-10
{11}
20 км ясно -3.3 -6.5 78 -11 -10 1015.1 1014.7 -7.1 85
06 18.05 В 8-11
{13}
20 км ясно -0.7 -3.5 81 -8 -7 1014.8 1014.4
12 18.05 В 6
{11}
20 км ясно +1.5 -1.4 81 -5 -3 1015.5 1015.1
15 18.05 СВ 7
{11}
20 км ясно +0.2 -2.0 85 -7 -7 1015.6 1015.2 +1.7
03 19.05 СВ 8-11
{12}
20 км ясно -4.2 -7.1 80 -13 -12 1011.5 1011.1 -6.4 85
06 19.05 СВ 10-14
{14}
20 км ясно -2.3 -5.4 79 -11 -11 1010.2 1009.8
12 19.05 СВ 9-13
{15}
20 км 8/0
[Cc]
-1.3 -3.9 82 -10 -9 1009.1 1008.7
15 19.05 СВ 9-13
{14}
20 км 4/0
[Ci fib]
-3.5 -5.8 84 -12 -12 1008.6 1008.2 -0.6

 

Местоположение метеостанции Антипаюта (Ямало-Ненецкий АО, Россия): широта 69.08 долгота 76.85 высота над уровнем моря 3 м.

В архиве по умолчанию представлена погода в Антипаюте за последнюю неделю. Архивные данные за месяц целиком и за предыдущие месяцы, начиная с января 2011 года, Вы можете получить, выбрав интересующий диапазон дат из раскрывающегося списка и нажав кнопку "Ввод!".


*Определитесь, кто Вы:
робот инопланетянин человек

Внимание! Время в таблицах - всемирное. Для получения местного времени необходимо прибавить поправку, которая равна 5 ч.

Смотрите также архив погоды в соседних городах и на ближайших метеорологических станциях:

Погода в Тазовском (Ямало-Ненецкий АО, Россия) (195 км)
Погода в Сеяхе (Ямало-Ненецкий АО, Россия) (207 км)
Погода в Гыде (Ямало-Ненецкий АО, Россия) (209 км)
Погода в Новом Порте (Ямало-Ненецкий АО, Россия) (225 км)
Погода в Карауле (Красноярский край, Россия) (269 км)
Погода в Ныде (Ямало-Ненецкий АО, Россия) (318 км)
Погода в Тамбее (Ямало-Ненецкий АО, Россия) (327 км)
Погода в Новом Уренгое (Ямало-Ненецкий АО, Россия) (331 км)
Погода в Уренгое (Ямало-Ненецкий АО, Россия) (354 км)
Погода в Пангодах (Ямало-Ненецкий АО, Россия) (375 км)

Пояснения к столбцам:

Ветер - указаны скорость ветра в м/с - средняя за 10 мин, порывы в срок и между сроками (в фигурных скобках) и направление, откуда дует ветер: С - северный, СВ - северо-восточный, В - восточный, ЮВ - юго-восточный, Ю - южный, ЮЗ - юго-западный, З - западный, СЗ - северо-западный.
Видимость - горизонтальная дальность видимости в метрах или километрах. При видимости от 1 до 10 км при отсутствии осадков обычно наблюдается дымка, при ухудшении видимости до 1 км и менее - туман. В сухую погоду видимость может ухудшаться дымом, пылью или мглою.
Явления - указаны атмосферные явления, наблюдавшиеся в срок или в последний час перед сроком; фигурными скобками обозначены явления, наблюдавшиеся между сроками (за 1-3 часа до срока); квадратными скобками обозначены град или гололедные отложения с указанием их диаметра в мм.
Облачность - указаны через наклонную черту общая и нижняя облачность в баллах и высота нижней границы облаков в метрах; квадратными скобками обозначены формы облаков: Ci - перистые, Cs - перисто-слоистые, Cc - перисто-кучевые, Ac - высококучевые, As - высокослоистые, Sc - слоисто-кучевые, Ns - слоисто-дождевые, Cu - кучевые, Cb - кучево-дождевые. Подробнее классификацию облаков см. в Атласе облаков (PDF).
T - Температура воздуха - температура, измеренная на высоте 2 м над землей.
Td - Температура точки росы - температура, при понижении до которой содержащийся в воздухе водяной пар достигнет насыщения.
f - Относительная влажность воздуха - влажноcть воздуха, измеренная на высоте 2 м над землей.
Te - Эффективная температура - температура, которую ощущает одетый по сезону человек в тени. Характеристика душности погоды. При расчете учитывается влияние влажности воздуха и скорости ветра на теплоощущения человека.
Tes - Эффективная температура на солнце - температура, которую ощущает человек, с поправкой на солнечный нагрев. Характеристика знойности погоды. Зависит от высоты солнца над горизонтом, облачности и скорости ветра. Ночью, в пасмурную погоду, а также при ветре 12 м/с и более поправка равна нулю.
P - Атмосферное давление - приведенное к уровню моря атмосферное давление.
Po - Атмосферное давление - измеренное на уровне метеостанции атмосферное давление.
Tmin - Минимальная температура - минимум температуры воздуха на высоте 2 м над землей.
Tmax - Максимальная температура - максимум температуры воздуха на высоте 2 м над землей.
R - Количество осадков - Количество выпавших осадков за период времени, мм. При наведении курсора мыши на число - период времени, за который выпало указанное количество осадков.
R24 - Количество осадков - Количество выпавших осадков за 24 часа, мм.
S - Снежный покров - Высота снежного покрова, см. При наведении курсора мыши на число - состояние снежного покрова и степень покрытия местности в баллах.